Hourly Data Report for April 10, 2021

TORONTO CITY
ONTARIO
Current Station Operator: ECCC - MSC

43°40'00.000" N
79°24'00.000" W
112.50 m
6158355
71508
XTO

Download Data

Hourly Data (April 2021)
Hourly Data Report for April 10, 2021
TIME
LST
Temp Definition
°C
Dew Point Definition
°C
Rel Hum Definition
%
Precip. Amount Definition
mm

Wind Dir Definition
10's deg

Wind Spd Definition
km/h
Visibility Definition
km
Stn Press Definition
kPa
Hmdx Definition


Wind Chill Definition


Weather Definition


00:00 13.7 9.6 76 0.0       99.84     LegendNANA
01:00 13.3 9.4 77 0.0       99.80     LegendNANA
02:00 13.4 9.6 78 0.0       99.76     LegendNANA
03:00 12.4 9.1 81 0.0       99.73     LegendNANA
04:00 12.1 9.1 82 0.0       99.77     LegendNANA
05:00 11.8 8.7 82 0.0       99.75     LegendNANA
06:00 11.5 8.7 83 0.0       99.78     LegendNANA
07:00 11.5 8.5 82 0.0       99.79     LegendNANA
08:00 12.2 8.1 76 0.0       99.76     LegendNANA
09:00 14.1 8.7 70 0.0       99.73     LegendNANA
10:00 15.5 9.1 66 0.0       99.71     LegendNANA
11:00 15.6 9.1 65 0.0       99.72     LegendNANA
12:00 16.0 8.8 62 0.0       99.63     LegendNANA
13:00 18.0 9.1 56 0.0       99.53     LegendNANA
14:00 18.4 8.8 54 0.0       99.45     LegendNANA
15:00 18.0 8.2 53 0.0       99.39     LegendNANA
16:00 18.1 7.7 51 0.0       99.29     LegendNANA
17:00 17.9 9.1 56 0.0       99.17     LegendNANA
18:00 17.8 9.2 57 0.0       99.07     LegendNANA
19:00 18.4 9.5 56 0.0       98.97     LegendNANA
20:00 18.9 8.6 51 0.0       98.92     LegendNANA
21:00 18.6 6.1 44 0.0       98.89     LegendNANA
22:00 17.5 5.5 45 0.0       98.84     LegendNANA
23:00 17.4 5.5 45 0.0       98.76     LegendNANA

Notes on Data Quality.

Legend

  • E = Estimated
  • M = Missing
  • NA = Not Available*
  • [empty] = Indicates an unobserved value
Date modified: